OM1PU-6 Weather Reports


Display with metric or nautical units.
time (UTC)temp
F
wind
direction
speed
MPH
gust
MPH
rain 1hr
in
rain 24hr
in
rain mn
in
humidity
%
barometer
mb
20260504070316 65 99 4.0 21.0 0.00 0.00 0.00 49 1028.8
20260504050316 50 284 0.0 0.0 0.00 0.00 0.00 78 1028.8
20260504044816 49 359 0.0 0.0 0.00 0.00 0.00 80 1028.5
20260504043316 49 273 0.0 0.0 0.00 0.00 0.00 78 1028.3
20260504041816 47 238 0.0 0.0 0.00 0.00 0.00 78 1028.4
20260504040315 46 268 0.0 0.0 0.00 0.00 0.00 81 1028.5
20260504034817 46 266 0.0 0.0 0.00 0.00 0.00 82 1028.3
20260504033315 45 273 0.0 0.0 0.00 0.00 0.00 82 1028.5
20260504031816 45 267 0.0 0.0 0.00 0.00 0.00 81 1028.8
20260504030317 45 282 0.0 0.0 0.00 0.00 0.00 80 1028.5
20260504024815 45 277 0.0 0.0 0.00 0.00 0.00 81 1028.8
20260504023316 46 280 0.0 0.0 0.00 0.00 0.00 79 1028.7
20260504021816 46 280 0.0 0.0 0.00 0.00 0.00 78 1028.8
20260504020316 46 284 0.0 0.0 0.00 0.00 0.00 79 1028.8
20260504014816 46 275 0.0 0.0 0.00 0.00 0.00 78 1028.5
20260504013316 47 277 0.0 0.0 0.00 0.00 0.00 77 1028.5
20260504011816 48 286 0.0 0.0 0.00 0.00 0.00 76 1028.2
20260504010316 48 276 0.0 0.0 0.00 0.00 0.00 76 1028.3
20260504004816 49 273 0.0 0.0 0.00 0.00 0.00 72 1028.3
20260504003316 50 305 0.0 0.0 0.00 0.00 0.00 69 1028.3
20260504001816 51 274 0.0 0.0 0.00 0.00 0.00 68 1028.3
20260504000316 51 279 0.0 0.0 0.00 0.00 0.00 68 1028.3
20260503234816 52 272 0.0 0.0 0.00 0.00 0.00 65 1028.2
20260503233316 53 270 0.0 0.0 0.00 0.00 0.00 63 1028.4
20260503231816 54 267 0.0 0.0 0.00 0.00 0.00 62 1028.4
20260503230315 55 261 0.0 0.0 0.00 0.00 0.00 60 1028.5
20260503224815 55 258 0.0 0.0 0.00 0.00 0.00 58 1028.5
20260503223316 55 246 0.0 0.0 0.00 0.00 0.00 57 1028.4
20260503221815 56 251 0.0 4.0 0.00 0.00 0.00 56 1028.4
20260503220315 56 268 0.0 0.0 0.00 0.00 0.00 55 1028.3
20260503214816 57 237 1.0 4.0 0.00 0.00 0.00 54 1028.4
20260503213316 57 89 2.0 8.0 0.00 0.00 0.00 52 1028.5
20260503211816 58 207 2.0 8.0 0.00 0.00 0.00 52 1028.6
20260503210315 58 105 3.0 12.0 0.00 0.00 0.00 51 1028.3
20260503204816 59 235 0.0 4.0 0.00 0.00 0.00 50 1028.6
20260503203315 60 228 2.0 12.0 0.00 0.00 0.00 49 1028.4
20260503201816 60 243 1.0 4.0 0.00 0.00 0.00 48 1028.5
20260503200316 61 118 2.0 8.0 0.00 0.00 0.00 46 1028.7
20260503194816 62 281 0.0 4.0 0.00 0.00 0.00 46 1028.7
20260503193316 62 109 1.0 8.0 0.00 0.00 0.00 44 1028.6
20260503191816 63 249 1.0 8.0 0.00 0.00 0.00 44 1028.6
20260503190316 64 122 2.0 8.0 0.00 0.00 0.00 43 1028.6
20260503183315 66 117 1.0 8.0 0.00 0.00 0.00 42 1028.4
20260503181816 67 120 3.0 12.0 0.00 0.00 0.00 42 1028.3
20260503180316 68 223 2.0 12.0 0.00 0.00 0.00 41 1027.9
20260503174816 69 150 2.0 8.0 0.00 0.00 0.00 40 1028.0
20260503173315 71 224 2.0 12.0 0.00 0.00 0.00 39 1028.1
20260503171816 72 99 1.0 8.0 0.00 0.00 0.00 38 1027.8
20260503170315 73 189 1.0 4.0 0.00 0.00 0.00 37 1028.1
20260503150315 78 184 2.0 12.0 0.00 0.00 0.00 33 1028.6
20260503130315 77 193 1.0 8.0 0.00 0.00 0.00 36 1029.7
20260503110316 74 196 3.0 29.0 0.00 0.00 0.00 37 1031.1
20260503090316 71 189 2.0 16.0 0.00 0.00 0.00 40 1032.0
20260503080315 67 299 0.0 4.0 0.00 0.00 0.00 43 1032.3